Regional Weather Roundup
Issued by NWS

Home | Current Version | Previous Version | Text Only | Print | Product List | Glossary Off
Versions: 1 2 3 4 5 6 7 8 9 10 11 12 13 14 15 16 17 18 19 20 21 22 23 24 25 26 27 28 29 30 31 32 33 34 35 36 37 38 39 40 41 42 43 44 45 46 47 48 49 50

362
ASUS43 KLSX 111610
RWRMO

WEATHER SUMMARY FOR MISSOURI
NATIONAL WEATHER SERVICE SPRINGFIELD MO
1000 AM CST THU FEB 11 2016

NOTE: "FAIR" INDICATES FEW OR NO CLOUDS BELOW 12,000 FEET WITH NO
       SIGNIFICANT WEATHER AND/OR OBSTRUCTIONS TO VISIBILITY.
       CURRENT SKY AND/OR WEATHER CONDITIONS ARE NOT AVAILABLE FOR
       CHILLICOTHE AND FARMINGTON.

MOZ001>031-035>038-043-044-053-054-111700-
...NORTHERN AND WESTERN MISSOURI...

CITY           SKY/WX    TMP DP  RH WIND       PRES   REMARKS
KANSAS CTY INT PTSUNNY   26  20  77 NE6       30.31R WCI  19
KANSAS C DTWN  CLOUDY    28  20  71 NE8       30.32R WCI  20
LEE`S SUMMIT   CLOUDY    26  20  77 NE9       30.31R WCI  17
ST JOSEPH      MOSUNNY   24  16  71 NE7       30.35R WCI  16
CHILLICOTHE      N/A     24  11  57 VRB6      30.36R WCI  17
KIRKSVILLE     SUNNY     17   5  59 NE5       30.34R WCI  10

$$
MOZ066>068-077>081-088>096-101>105-111700-
...SOUTHWEST MISSOURI...

CITY           SKY/WX    TMP DP  RH WIND       PRES   REMARKS
SPRINGFIELD    SUNNY     33  16  49 NE8       30.21R WCI  26
JOPLIN         SUNNY     33  20  58 NE8       30.24R WCI  26

$$
MOZ032>034-039>042-045>050-055>058-069>072-111700-
...CENTRAL MISSOURI...

CITY           SKY/WX    TMP DP  RH WIND       PRES   REMARKS
COLUMBIA       CLOUDY    24  15  68 NE7       30.32R WCI  16
JEFFERSON CITY MOSUNNY   26  17  68 E8        30.33R WCI  18
ROLLA          SUNNY     25  20  81 NE10      30.26R WCI  15
SEDALIA        SUNNY     29  18  63 E9        30.31R WCI  20
WHITEMAN AFB   MOSUNNY   29  20  68 E10       30.29S WCI  20
WARRENSBURG    MOSUNNY   30  21  69 NE7       30.31R WCI  23
OSAGE BEACH    SUNNY     28  18  64 E12       30.29R WCI  18

$$
MOZ051-052-059>065-111700-
...EAST CENTRAL MISSOURI...

CITY           SKY/WX    TMP DP  RH WIND       PRES   REMARKS
ST LOUIS INTL  CLOUDY    24  13  62 NE7       30.34R WCI  16
SPIRIT OF STL  CLOUDY    24  17  74 NE9       30.34R WCI  14
ST CHARLES     CLOUDY    24  12  60 NE6       30.36R WCI  17

$$
MOZ072>076-082>087-097>100-106>115-111700-
...SOUTH CENTRAL AND SOUTHEAST MISSOURI...

CITY           SKY/WX    TMP DP  RH WIND       PRES   REMARKS
CAPE GIRARDEAU SUNNY     30  22  72 NE10      30.31R WCI  21
FARMINGTON     PTSUNNY   27  20  75 NE7       30.30R WCI  19
POPLAR BLUFF   SUNNY     33  21  61 NE15      30.28R WCI  23
WEST PLAINS    SUNNY     32  13  45 E9        30.22R WCI  24

$$




USA.gov is the U.S. government's official web portal to all federal, state and local government web resources and services.